Overview Statistics Trail Chart Weather Telemetry Raw packets
 

This is the latest recevied weather packets stored in our database for station/object EA5CLU-13. If no packets are shown the sender has not sent any weather packets the latest 10 day(s).

<< 22 23 24 25 26 27 28 >>
Time Temp. Humidity Pressure Rain* Wind** Luminosity Snow
1787913554 22.22° C - 1023.1 hPa 0 mm - - -
1787913254 22.22° C - 1023.1 hPa 0 mm - - -
1787912954 22.22° C - 1023.1 hPa 0 mm - - -
1787912353 22.22° C - 1023.1 hPa 0 mm - - -
1787912054 22.22° C - 1023.1 hPa 0 mm - - -
1787911453 21.67° C - 1023.1 hPa 0 mm - - -
1787911154 21.67° C - 1022.9 hPa 0 mm - - -
1787910853 21.67° C - 1022.7 hPa 0 mm - - -
1787910254 21.11° C - 1023.4 hPa 0 mm - - -
1787909953 21.11° C - 1023.8 hPa 0 mm - - -
1787909353 21.11° C - 1023.5 hPa 0 mm - - -
1787909054 21.11° C - 1023.5 hPa 0 mm - - -
1787908153 21.11° C - 1023.5 hPa 0 mm - - -
1787907254 20.56° C - 1023.3 hPa 0 mm - - -
1787906954 20° C - 1023.1 hPa 0 mm - - -
1787906652 20.56° C - 1023.2 hPa 0 mm - - -
1787906352 20.56° C - 1023.2 hPa 0 mm - - -
1787906054 20.56° C - 1023.1 hPa 0 mm - - -
1787905754 20° C - 1023.2 hPa 0 mm - - -
1787905453 20° C - 1023 hPa 0 mm - - -
1787905153 20° C - 1023.3 hPa 0 mm - - -
1787904554 20° C - 1023 hPa 0 mm - - -
1787904254 20° C - 1022.9 hPa 0 mm - - -
1787903954 20° C - 1022.8 hPa 0 mm - - -
1787903653 20° C - 1022.8 hPa 0 mm - - -

* Rain latest hour (hover to see other rain measurements)
** Current wind speed in m/s (hover to see current wind gust speed)